Theta_e
322 328 332 333 335 337 336 332 332 328 323 322 324 327 327 328 329 326 324 324 321 319 324 327 328 330 330 322 324 322 320 318 315 316 319 331 320 316 315 314 318 319 317
321 327 332 332 334 337 336 333 333 328 324 322 324 325 325 326 326 321 321 322 320 320 320 321 323 323 320 322 322 320 319 318 320 320 319 317 317 316 314 314 317 330 327
319 327 330 332 334 336 336 334 333 328 324 322 324 323 325 327 326 321 321 321 320 320 319 320 320 321 320 321 322 322 323 323 323 322 321 319 317 317 316 316 315 320 331
318 322 328 329 331 334 336 335 333 329 323 321 323 323 325 327 326 322 320 319 320 320 320 319 319 319 320 323 325 326 324 322 322 321 322 322 322 319 319 318 317 317 318
318 319 322 325 328 330 333 335 332 329 324 320 322 322 325 325 324 322 320 319 320 320 320 319 319 320 325 330 332 331 329 328 326 322 320 320 321 321 321 320 320 319 319
318 318 319 322 324 326 327 331 332 327 322 319 322 322 324 325 323 320 320 320 320 319 320 320 319 322 329 332 333 334 333 332 330 332 325 320 319 319 320 320 320 320 320
318 317 318 319 321 322 323 326 329 327 322 319 322 324 323 323 323 320 320 320 320 319 319 320 320 323 329 331 333 334 334 331 328 327 324 320 320 320 320 319 319 319 319
318 317 317 318 319 321 321 323 325 324 323 319 319 324 323 322 321 319 320 320 319 319 319 320 320 320 326 332 334 333 333 331 331 333 332 326 321 321 323 323 322 321 320
318 317 317 317 318 319 321 323 322 321 320 319 318 321 322 320 320 319 319 320 319 319 320 320 321 321 325 331 332 332 332 332 333 333 334 333 332 327 320 320 323 323 322
318 318 317 317 318 319 320 322 322 320 319 317 318 319 319 319 320 319 319 319 320 320 321 322 321 321 321 329 330 332 333 334 335 334 335 335 335 333 328 325 318 320 321
320 318 317 317 317 318 320 321 321 321 320 317 317 319 319 319 319 319 319 319 320 321 321 322 321 321 319 320 330 332 333 335 335 336 338 335 336 336 333 326 325 323 321
322 319 318 317 317 317 319 320 321 321 320 319 317 318 319 319 319 319 319 319 319 320 321 322 322 320 319 318 324 330 334 335 335 336 337 336 337 336 336 333 327 325 324
322 321 319 318 317 317 318 319 319 320 320 319 318 317 318 319 319 319 318 318 319 320 320 320 321 321 321 318 318 331 333 333 334 335 335 336 337 336 336 336 330 327 326
324 322 321 318 317 317 317 317 318 319 320 320 319 317 317 318 318 318 318 318 318 318 320 320 320 322 323 319 322 325 329 330 334 334 334 335 337 336 336 336 334 332 328
326 324 323 321 319 317 317 317 317 318 319 319 319 318 317 317 317 317 317 317 317 317 318 319 319 320 323 324 328 331 333 330 332 334 335 334 334 335 335 334 332 333 331
328 325 324 323 322 319 318 317 317 317 317 318 319 319 318 317 316 316 317 317 317 317 317 317 318 318 319 322 324 327 333 334 333 334 334 334 333 333 333 333 332 334 333
328 326 323 323 324 323 321 319 317 317 317 317 317 319 319 319 318 317 317 317 318 318 318 318 317 318 319 319 319 320 330 335 335 335 335 332 332 329 331 328 329 332 333
332 331 326 322 323 324 323 322 321 318 317 317 317 317 317 319 319 319 319 320 321 320 323 325 321 318 318 318 319 321 322 324 325 326 326 324 323 323 323 323 325 326 329
335 334 331 326 322 323 324 324 324 323 322 320 318 317 317 317 317 318 319 320 324 325 323 326 326 325 322 324 323 323 325 326 325 325 325 327 327 326 325 324 326 326 326
338 338 337 332 327 323 324 325 326 326 326 328 324 321 320 318 318 318 318 320 325 329 327 325 325 328 327 326 329 329 328 329 330 329 327 326 328 329 329 328 327 327 327
339 339 339 338 333 330 324 324 326 327 328 330 331 327 325 326 325 323 322 320 323 328 328 327 328 328 328 331 334 333 331 330 328 325 325 324 325 328 330 329 328 329 330
340 339 339 339 338 334 329 324 324 324 328 329 332 330 328 328 328 329 326 324 323 324 326 327 328 327 327 330 334 334 334 329 325 323 324 324 324 325 326 328 330 330 331
339 339 339 339 337 337 331 329 328 328 331 334 331 331 330 330 331 331 330 329 327 327 325 324 326 327 327 330 332 334 334 332 325 325 325 326 326 327 329 331 333 332 332
338 339 339 338 337 336 334 330 326 325 325 324 325 326 329 330 331 332 333 333 331 331 330 327 326 324 328 326 329 331 333 330 328 328 327 329 329 329 332 334 335 335 334
334 338 339 338 338 335 335 332 328 325 325 326 326 326 327 327 329 330 332 333 334 333 332 332 331 329 327 327 327 328 329 331 332 333 331 329 329 328 329 329 329 331 334
330 336 338 338 338 336 336 334 333 330 327 327 328 329 328 327 327 329 329 332 332 334 333 334 334 334 333 330 328 328 328 329 329 331 333 331 330 328 328 329 331 333 337
Wind_Speed
31 28 25 22 20 21 20 19 18 17 18 18 19 20 21 19 17 16 16 17 17 18 18 18 17 16 15 17 19 19 18 19 20 21 22 22 22 20 19 20 21 21 20
30 29 26 23 22 22 21 20 18 18 19 20 21 21 20 18 17 17 18 18 19 19 19 19 19 19 20 21 21 21 20 20 20 20 21 22 21 20 19 18 18 18 17
29 30 27 25 24 24 22 20 18 17 18 20 22 21 19 17 18 17 18 18 19 19 20 20 20 21 22 22 22 22 22 21 19 18 17 19 19 17 16 16 17 16 17
29 30 29 28 27 25 23 21 19 18 17 19 22 22 20 19 18 18 18 17 18 19 20 21 22 22 23 24 24 23 22 22 20 16 14 14 16 14 14 14 14 13 12
29 29 29 28 28 26 24 22 20 18 17 18 21 21 20 19 19 19 18 18 18 19 20 21 22 23 24 24 22 20 18 17 16 16 13 10 10 11 10 10 10 11 11
29 29 28 28 27 26 25 23 20 19 18 19 20 21 19 18 17 18 18 18 18 19 20 20 22 23 22 20 19 18 16 13 14 13 10 9 7 7 6 7 8 7 8
30 29 28 27 27 26 25 24 22 20 19 19 20 21 19 18 17 17 17 17 17 19 19 20 22 22 21 20 19 16 12 10 10 13 11 8 6 5 4 4 5 5 5
30 29 28 26 26 26 25 24 22 20 19 19 20 21 20 18 17 17 17 16 16 17 17 18 19 20 20 20 18 16 13 9 10 10 9 10 7 4 3 2 2 3 3
29 29 29 28 27 26 25 25 23 21 19 19 19 20 19 18 18 18 18 17 17 17 16 17 18 18 18 17 15 14 13 9 4 2 3 4 8 9 6 3 1 0 0
30 29 30 30 29 28 27 25 24 22 21 19 20 20 19 18 18 18 18 17 17 17 17 16 16 16 17 18 15 15 12 9 2 1 1 2 3 7 7 5 3 2 1
32 31 31 31 31 30 29 27 25 23 22 21 20 20 20 19 18 18 18 18 17 17 16 15 15 15 16 17 18 15 13 6 0 3 7 5 3 7 9 7 6 4 4
37 35 33 32 32 31 30 29 28 26 25 24 23 22 21 20 19 18 18 17 17 17 16 16 15 16 16 17 19 18 15 7 4 1 1 6 5 6 9 9 9 8 6
39 37 35 34 33 33 33 31 30 29 27 25 24 23 22 21 20 20 20 20 19 19 18 17 16 15 14 17 18 21 16 8 7 6 4 5 9 8 8 10 10 11 11
41 39 37 35 35 34 33 32 31 30 29 27 26 25 24 24 22 21 21 20 19 19 18 17 15 14 15 17 18 21 19 16 10 10 8 7 10 10 10 10 11 13 14
40 40 40 38 37 36 34 33 32 31 30 29 27 27 26 25 24 23 22 21 20 19 19 18 17 17 17 18 19 19 18 16 15 15 15 15 15 14 13 14 14 13 14
39 40 41 41 39 37 36 35 33 32 31 30 29 28 27 26 25 24 23 22 21 21 19 19 19 18 18 19 20 20 19 17 16 18 20 22 22 21 20 19 18 17 16
38 39 41 43 41 40 38 36 35 33 32 32 31 30 29 28 27 26 25 25 23 21 20 20 21 21 21 21 23 23 24 23 22 22 23 25 28 27 26 25 23 22 20
36 40 40 42 44 42 40 38 36 35 34 33 33 31 31 30 29 29 27 26 23 23 22 21 22 24 24 25 24 23 24 23 23 24 24 25 26 27 28 28 27 27 25
37 36 39 41 44 44 42 40 38 36 35 35 34 33 32 32 32 32 31 29 25 25 26 24 23 23 25 24 24 24 24 24 24 23 24 24 24 25 25 25 25 26 26
41 39 37 37 39 43 44 42 41 39 37 34 36 35 33 33 33 34 34 33 29 28 29 28 28 26 26 25 24 25 25 26 28 29 29 26 25 24 24 24 24 25 25
48 44 43 41 39 40 46 47 46 45 41 38 35 34 34 32 32 33 34 35 34 34 33 32 30 29 30 28 25 29 30 30 32 33 31 29 28 26 27 27 26 26 25
58 51 50 47 43 41 43 45 46 45 43 40 37 35 36 34 33 33 35 35 37 38 37 36 36 35 34 32 32 31 33 33 36 34 33 32 30 28 26 25 24 25 25
63 62 58 54 49 44 41 43 44 45 44 41 42 40 39 38 36 35 35 37 38 39 40 40 40 40 40 38 37 31 13 23 29 28 25 24 24 24 22 21 22 25 28
65 68 64 61 55 49 46 47 46 46 49 48 46 43 42 42 41 40 39 39 39 40 42 43 43 44 43 45 43 43 44 36 17 16 22 17 17 19 18 19 22 25 29
55 70 70 67 63 56 54 52 49 47 44 45 48 47 46 45 45 44 42 43 43 44 44 44 45 46 47 47 48 46 44 46 47 45 40 39 35 31 30 29 26 25 23
49 62 72 73 69 63 60 57 53 48 45 48 49 48 48 48 47 48 46 47 46 46 47 46 46 46 47 48 49 50 49 48 50 49 49 50 47 44 38 31 27 23 20
Wind_Direction
165 164 160 161 162 158 148 141 132 129 129 130 128 126 123 118 117 124 128 126 122 120 123 121 118 115 113 112 112 110 110 111 112 112 109 106 103 98 98 99 101 100 97
159 161 159 161 163 160 151 143 137 134 132 133 135 134 131 127 125 128 128 126 120 118 118 118 116 113 113 111 109 108 107 104 101 101 103 101 98 96 98 102 102 97 97
160 157 159 161 161 159 152 147 141 137 136 136 140 140 137 129 129 124 125 125 123 121 119 119 118 118 116 114 114 112 108 102 99 96 99 100 100 100 102 102 102 99 96
158 155 158 161 159 159 155 151 144 141 140 140 144 144 139 131 129 123 124 126 126 126 124 125 124 121 120 118 115 112 110 104 95 91 92 93 99 101 101 100 98 97 94
157 155 158 160 159 159 156 153 149 145 144 144 146 146 142 136 133 131 129 130 130 129 128 128 127 126 125 122 118 111 106 103 98 92 90 90 90 97 98 97 96 96 96
157 157 157 159 159 159 156 155 154 150 150 149 150 151 147 141 138 136 137 137 137 136 135 134 133 133 131 126 120 115 109 104 95 80 79 82 84 90 92 98 97 96 95
157 158 157 160 161 160 158 158 157 157 154 153 155 155 152 148 145 142 144 143 142 141 140 141 140 141 139 134 129 120 118 109 80 86 80 71 72 75 82 91 102 108 110
159 159 159 162 163 162 161 161 160 160 159 160 159 158 156 154 150 149 150 147 146 147 146 145 145 148 147 144 138 131 131 123 101 89 82 65 50 38 44 70 88 103 122
165 164 163 164 166 165 165 164 163 163 164 165 164 163 162 161 159 158 157 156 155 155 153 152 152 153 155 155 149 144 147 153 152 83 119 71 39 32 16 5 359 40 266
171 171 169 168 169 169 169 169 169 167 167 170 170 169 167 167 167 165 165 165 164 163 162 161 161 161 162 165 161 154 154 154 165 314 271 231 7 10 10 358 332 308 279
178 178 177 174 173 174 173 172 174 173 174 174 176 176 174 174 174 174 172 172 171 171 170 170 170 169 167 170 167 166 154 150 196 295 264 229 289 339 345 338 331 321 311
183 182 184 182 179 178 178 178 178 179 181 181 181 182 181 181 180 180 180 180 181 180 180 179 178 177 175 173 175 177 168 178 200 188 124 204 256 309 325 329 319 311 305
187 187 188 187 186 184 184 183 183 185 186 187 187 187 186 187 187 188 188 188 189 191 192 190 189 188 185 179 177 181 187 196 215 233 228 221 259 275 299 310 306 303 297
192 192 191 192 192 192 191 190 190 189 190 191 191 192 194 193 195 196 197 198 198 201 201 202 199 194 192 189 185 189 202 207 227 236 259 247 250 258 275 289 300 299 293
195 196 196 196 197 198 197 197 197 196 196 196 196 197 199 200 201 202 203 205 207 209 212 212 209 208 204 202 202 209 217 218 221 240 251 258 252 260 269 277 285 290 293
199 201 200 200 201 202 202 204 203 203 203 203 203 203 205 206 208 210 209 210 213 215 219 223 223 223 222 222 225 232 235 240 237 243 249 255 260 264 266 274 278 280 285
202 202 204 204 204 207 207 209 209 209 210 210 209 209 211 213 213 217 215 215 217 221 224 230 233 235 235 235 237 237 241 246 251 251 257 260 262 266 267 270 272 275 278
205 206 207 207 208 209 212 212 212 214 215 217 217 216 216 218 220 221 225 224 222 223 226 231 235 237 240 240 242 241 242 248 254 257 259 259 263 266 268 271 274 276 276
212 210 209 210 211 211 214 214 216 218 219 221 223 223 221 222 224 226 228 230 228 228 230 232 236 240 243 245 248 249 251 255 260 264 266 268 270 273 275 275 277 277 276
217 217 214 213 213 213 214 218 218 221 222 223 224 226 226 225 227 229 231 233 232 234 236 235 239 240 246 250 256 261 264 265 269 270 271 272 269 269 274 277 280 280 281
222 219 217 214 215 210 212 216 218 219 220 222 224 226 227 225 226 229 234 235 234 236 240 242 244 244 247 250 254 260 266 267 267 267 268 270 271 275 277 279 282 285 286
224 220 221 219 219 215 215 217 221 222 223 226 226 227 229 229 229 229 233 235 235 237 239 241 242 245 249 248 246 255 265 271 267 268 268 270 273 276 278 279 282 282 283
223 224 221 221 221 220 219 217 219 222 226 228 231 231 233 234 235 234 235 238 240 240 242 243 242 243 246 248 246 240 239 246 269 275 273 274 274 269 268 267 270 276 280
223 226 224 221 219 222 217 216 216 221 224 229 231 233 235 237 240 242 242 243 244 244 246 247 246 245 243 247 247 244 245 250 264 281 279 282 273 265 255 259 267 271 274
229 224 224 222 219 219 219 218 217 219 228 234 232 234 236 239 242 244 245 247 248 247 246 249 250 247 246 247 249 249 248 250 254 255 267 269 269 269 274 278 282 277 273
231 225 222 221 219 218 220 220 220 221 224 227 232 234 238 241 243 244 247 248 250 251 252 252 252 253 251 252 250 252 250 249 251 251 254 262 270 277 279 281 276 273 272